Hourly Data Report for October 02, 2013

All times are specified in Local Standard Time (LST). Add 1 hour to adjust for Daylight Saving Time where and when it is observed.

GJOA HAVEN A
NUNAVUT

68°38'08.000" N
95°51'01.000" W
46.90 m
2302337
71597
YHK

Download Data

Hourly Data (October 2013)
Hourly Data Report for October 2, 2013
Temp Definition
°C
Dew Point Temp Definition
°C
Rel Hum Definition
%
Wind Dir Definition
10's deg

Wind Spd Definition
km/h
Visibility Definition
km
Stn Press Definition
kPa
Hmdx Definition


Wind Chill Definition


Weather Definition


TIME
00:00 Legend Double Dagger -3.2 -3.5 98 36 21 16.1 101.20   -9 LegendNANA
01:00 Legend Double Dagger -3.5 -3.9 97 36 21 16.1 101.23   -10 LegendNANA
02:00 Legend Double Dagger -3.7 -4.1 97 36 21 16.1 101.25   -10 LegendNANA
03:00 Legend Double Dagger -3.7 -4.5 94 1 21 16.1 101.29   -10 LegendNANA
04:00 Legend Double Dagger -3.8 -4.6 94 36 17 16.1 101.34   -10 LegendNANA
05:00 Legend Double Dagger -4.2 -4.7 96 36 15 16.1 101.37   -10 LegendNANA
06:00 Legend Double Dagger -4.1 -4.4 98 35 17 16.1 101.38   -10 LegendNANA
07:00 Legend Double Dagger -3.3 -3.9 96 1 18 16.1 101.39   -9 LegendNANA
08:00 Legend Double Dagger -2.2 -3.3 92 2 18 16.1 101.44   -8 LegendNANA
09:00 Legend Double Dagger -0.9 -5.1 73 4 26 16.1 101.48   -7 LegendNANA
10:00 Legend Double Dagger -1.0 -6.2 68 4 28 16.1 101.53   -8 LegendNANA
11:00 Legend Double Dagger -1.5 -8.6 59 4 37 16.1 101.56   -9 LegendNANA
12:00 Legend Double Dagger -1.6 -7.7 63 2 26 16.1 101.63   -8 LegendNANA
13:00 Legend Double Dagger -2.0 -8.5 61 3 32 16.1 101.66   -9 LegendNANA
14:00 Legend Double Dagger -1.9 -8.1 63 1 33 16.1 101.69   -9 LegendNANA
15:00 Legend Double Dagger -3.3 -8.6 67 1 41 16.1 101.72   -12 LegendNANA
16:00 Legend Double Dagger -4.1 -8.8 70 1 35 16.1 101.75   -12 LegendNANA
17:00 Legend Double Dagger -4.7 -8.3 76 1 32 16.1 101.79   -13 LegendNANA
18:00 Legend Double Dagger -5.0 -9.0 74 2 30 16.1 101.81   -13 LegendNANA
19:00 Legend Double Dagger -5.2 -8.3 79 1 24 16.1 101.84   -12 LegendNANA
20:00 Legend Double Dagger -5.4 -7.7 84 1 28 16.1 101.85   -13 LegendNANA
21:00 Legend Double Dagger -5.0 -8.0 80 1 28 16.1 101.88   -13 LegendNANA
22:00 Legend Double Dagger -5.2 -8.0 81 1 26 16.1 101.91   -13 LegendNANA
23:00 Legend Double Dagger -5.2 -8.3 79 2 30 16.1 101.94   -13 LegendNANA

Notes on Data Quality.

Legend

  • E = Estimated
  • M = Missing
  • NA = Not Available
  • ‡ = Partner data that is not subject to review by the National Climate Archives
Date modified: